TimeEDT,TemperatureF,Dew PointF,Humidity,Sea Level PressureIn,VisibilityMPH,Wind Direction,Wind SpeedMPH,Gust SpeedMPH,PrecipitationIn,Events,Conditions,WindDirDegrees,DateUTC
12:52 AM,39.0,30.9,73,30.02,10.0,West,3.5,-,N/A,,Overcast,270,2013-03-29 04:52:00
1:52 AM,39.0,30.0,70,30.02,10.0,WNW,3.5,-,N/A,,Mostly Cloudy,290,2013-03-29 05:52:00
2:52 AM,33.1,28.0,82,30.02,10.0,Calm,Calm,-,N/A,,Clear,0,2013-03-29 06:52:00
3:52 AM,34.0,28.9,82,30.01,10.0,West,3.5,-,N/A,,Clear,280,2013-03-29 07:52:00
4:52 AM,32.0,26.1,79,30.02,10.0,West,3.5,-,N/A,,Clear,280,2013-03-29 08:52:00
5:52 AM,30.0,26.1,85,30.03,10.0,Calm,Calm,-,N/A,,Clear,0,2013-03-29 09:52:00
6:52 AM,34.0,28.0,79,30.04,10.0,West,5.8,-,N/A,,Clear,280,2013-03-29 10:52:00
7:52 AM,39.9,30.0,68,30.04,10.0,WNW,8.1,-,N/A,,Clear,290,2013-03-29 11:52:00
8:52 AM,45.0,30.9,58,30.04,10.0,NW,10.4,-,N/A,,Clear,310,2013-03-29 12:52:00
9:52 AM,50.0,32.0,50,30.04,10.0,NW,11.5,-,N/A,,Clear,310,2013-03-29 13:52:00
10:52 AM,53.1,32.0,45,30.04,10.0,WNW,9.2,-,N/A,,Clear,300,2013-03-29 14:52:00
11:52 AM,55.0,33.1,43,30.03,10.0,WNW,8.1,16.1,N/A,,Partly Cloudy,300,2013-03-29 15:52:00
12:52 PM,55.9,30.9,39,30.01,10.0,West,5.8,-,N/A,,Overcast,280,2013-03-29 16:52:00
1:52 PM,57.0,30.9,37,30.00,10.0,NNW,12.7,19.6,N/A,,Mostly Cloudy,340,2013-03-29 17:52:00
2:52 PM,55.9,30.0,37,29.99,10.0,Variable,5.8,16.1,N/A,,Scattered Clouds,0,2013-03-29 18:52:00
3:52 PM,51.1,33.1,50,29.99,10.0,South,8.1,-,N/A,,Overcast,170,2013-03-29 19:52:00
4:52 PM,52.0,34.0,50,29.98,10.0,SSE,4.6,-,N/A,,Overcast,160,2013-03-29 20:52:00
5:52 PM,51.1,32.0,48,29.99,10.0,SW,4.6,-,0.00,,Overcast,230,2013-03-29 21:52:00
6:52 PM,48.9,33.1,54,29.99,10.0,Calm,Calm,-,0.00,,Overcast,0,2013-03-29 22:52:00
7:52 PM,46.9,32.0,56,30.00,10.0,Calm,Calm,-,0.00,,Overcast,0,2013-03-29 23:52:00
8:52 PM,45.0,33.1,63,30.02,10.0,Calm,Calm,-,N/A,,Overcast,0,2013-03-30 00:52:00
9:52 PM,43.0,33.1,68,30.03,10.0,Calm,Calm,-,N/A,,Mostly Cloudy,0,2013-03-30 01:52:00
10:52 PM,45.0,30.9,58,30.04,10.0,NW,6.9,-,N/A,,Overcast,310,2013-03-30 02:52:00
11:52 PM,43.0,30.9,62,30.04,10.0,NW,5.8,-,N/A,,Mostly Cloudy,320,2013-03-30 03:52:00